User: anonymous   Login
Location: Unspecified
(0.0000°N, 0.0000°E)
Time: 02:41:55
(UTC+00:00)
Language:

WISE - Orbit

View from above orbital plane
View from above orbital plane
View from above satellite
View from above satellite

Ground track
Ground track

The orbit data is extracted from the following two-line orbital elements,

1 36119U 09071A   18267.68683539 +.00000783 +00000-0 +30243-4 0  9993
2 36119 097.4061 299.5724 0004300 102.3112 257.8609 15.29221053487246
Epoch (UTC): 24 September 2018 16:29:02
Eccentricity: 0.0004300
inclination: 97.4061°
perigee height: 475 km
apogee height: 481 km
right ascension of ascending node: 299.5724°
argument of perigee: 102.3112°
revolutions per day: 15.29221053
mean anomaly at epoch: 257.8609°
orbit number at epoch: 48724

The dashed part of the orbit path shows where the satellite is in the earth's shadow,  

DLR